Temperature
20 21 21 21 20 21 22 24 24 24 23 22 22 22 22 21 20 17 15 13 13 13 13 12 11 11 10 10 9 9 9 8 8 8 7 7 7 7 6 6 6 6 6 6 5 5 5 6 6
20 20 21 21 21 21 23 24 24 23 21 20 20 20 21 20 19 17 15 13 13 13 12 12 11 11 10 10 9 9 9 8 8 8 7 7 7 7 6 6 6 6 6 6 6 5 5 6 6
20 20 21 22 21 22 23 24 23 21 20 20 20 20 21 19 18 18 16 15 13 13 12 12 11 11 10 10 9 9 9 9 8 8 8 7 7 7 7 7 6 6 6 6 6 6 6 6 6
20 21 23 22 22 24 24 24 23 21 20 20 20 20 19 18 17 17 16 15 13 12 12 12 11 10 10 10 9 9 9 9 9 8 8 8 7 7 7 7 7 7 7 6 6 6 6 6 7
21 22 22 22 23 24 25 24 23 22 22 20 20 20 19 18 18 17 16 15 14 12 12 12 11 11 10 10 9 9 9 9 9 9 8 8 8 8 7 7 7 7 7 7 7 7 7 7 7
22 23 21 21 23 25 25 24 23 23 23 22 20 19 19 18 18 17 16 14 13 12 11 12 11 11 10 10 9 9 9 9 9 9 9 8 8 8 8 8 7 7 7 7 7 7 7 7 7
22 21 21 22 22 23 25 23 23 23 22 22 20 20 18 17 18 17 16 14 13 12 11 11 11 11 10 10 9 9 9 9 9 9 9 9 8 8 8 8 8 7 7 7 7 7 7 7 7
21 21 21 21 22 23 24 22 22 21 21 22 21 20 19 18 17 16 15 13 12 11 11 11 11 11 10 10 10 9 9 9 9 9 9 9 8 8 8 8 8 7 7 7 7 7 7 7 7
21 20 20 21 22 22 23 22 22 20 20 20 20 19 18 18 17 16 14 13 12 11 11 10 10 10 10 10 10 9 9 9 9 9 9 9 8 8 8 8 7 7 7 7 7 7 6 7 7
22 19 20 22 23 22 22 22 22 20 19 19 19 18 18 17 16 16 16 15 14 13 12 11 10 10 10 9 9 9 9 9 9 9 9 8 8 8 8 8 7 7 7 7 7 6 6 6 6
23 21 21 23 23 21 21 21 21 20 18 20 20 19 18 17 16 16 16 16 16 14 13 12 11 10 9 9 9 9 9 9 9 9 9 8 8 8 7 7 7 7 7 7 7 6 6 6 6
22 22 23 22 22 20 19 20 20 20 20 20 20 20 18 18 17 17 16 16 15 14 14 13 11 10 10 9 9 9 9 9 9 9 9 8 8 8 8 7 7 7 7 7 6 6 6 6 6
21 21 22 22 20 19 18 18 18 19 20 20 20 20 19 18 18 18 17 16 15 14 14 13 12 11 10 9 9 9 9 9 9 9 8 8 8 8 7 7 7 7 6 6 6 6 5 5 5
21 20 20 21 21 20 19 18 18 19 20 20 20 20 19 18 18 17 16 15 14 14 14 14 12 12 11 10 10 9 9 9 9 9 9 8 8 8 7 7 7 7 6 6 6 6 5 5 5
20 19 19 20 21 20 18 17 18 20 21 20 21 20 19 18 17 16 16 16 15 15 14 14 13 12 11 11 10 10 9 9 9 9 9 8 8 8 7 7 7 7 6 6 6 5 5 5 4
20 19 19 22 21 19 17 16 20 22 22 22 21 21 20 19 18 18 17 16 15 14 13 13 13 12 11 11 10 10 9 9 9 9 9 9 8 8 7 7 7 6 6 6 5 5 5 5 4
20 20 20 21 21 20 17 16 19 22 22 22 22 21 21 20 19 18 17 17 16 14 13 12 12 12 12 11 10 10 9 9 9 9 9 9 8 8 7 7 7 6 6 6 5 5 5 4 4
19 19 19 19 21 20 18 18 20 21 22 21 21 21 21 20 20 19 18 17 16 15 13 12 12 12 11 10 10 9 9 9 8 8 9 9 9 8 8 7 7 6 6 6 5 5 5 4 4
19 18 18 19 21 19 18 18 19 21 21 20 20 20 20 19 20 19 19 18 16 15 13 12 12 11 11 10 10 10 10 10 9 9 9 9 9 8 8 8 7 7 6 6 6 5 4 4 3
18 18 18 19 20 19 17 18 19 21 21 21 20 19 19 18 18 18 18 17 16 15 14 12 12 11 11 12 12 11 11 10 10 9 9 9 9 8 8 8 7 7 6 6 5 5 4 4 3
19 18 18 17 17 18 18 18 21 21 21 21 20 19 18 17 17 17 17 17 16 14 14 13 12 11 11 11 10 9 8 8 8 9 10 9 9 9 8 8 8 7 6 6 6 5 4 4 3
18 19 17 17 15 16 17 16 19 20 19 18 19 18 17 17 17 17 16 16 15 14 13 12 12 11 10 10 10 9 10 11 12 11 11 10 9 8 8 8 7 6 6 6 6 5 4 4 3
18 17 16 16 15 15 17 17 18 20 19 18 18 18 17 17 16 16 16 15 15 14 13 13 12 11 10 10 10 9 10 11 10 9 9 8 8 8 7 7 6 6 5 5 5 4 4 4 3
17 16 16 16 15 15 19 18 18 19 19 18 18 18 17 16 16 16 15 15 14 14 14 13 12 12 11 10 10 9 10 10 9 8 8 8 7 7 7 6 5 5 5 4 4 3 3 3 3
17 16 16 16 15 17 18 18 17 20 19 18 18 18 17 16 15 15 15 14 14 14 14 13 13 12 11 10 10 10 10 9 8 8 8 7 6 6 6 5 5 5 4 4 3 2 2 2 2
17 17 16 15 16 17 18 17 19 20 20 19 18 17 17 16 15 15 14 14 14 13 13 13 13 13 12 11 11 10 9 9 9 9 8 7 7 6 6 5 4 4 3 3 2 1 1 1 0
17 17 17 15 16 15 17 19 20 20 19 18 18 17 16 15 15 14 14 14 13 13 13 13 13 13 12 12 11 11 10 10 9 9 8 7 7 6 5 4 4 3 3 2 1 1 1 -0 -0
16 16 15 15 15 15 17 18 18 19 18 18 17 17 16 15 14 14 13 13 13 13 13 12 12 12 12 12 11 11 11 10 9 9 8 8 8 7 5 4 4 3 3 2 1 0 -0 -1 -1
14 15 15 15 16 14 14 16 19 19 18 17 16 16 15 14 14 14 13 13 12 12 12 12 12 12 11 11 11 10 10 9 9 8 8 8 7 6 5 5 4 3 2 2 1 0 -1 -2 -2
17 17 16 15 15 15 14 15 19 19 18 17 16 16 15 14 14 13 13 12 12 12 11 11 11 11 10 10 10 9 9 9 8 8 8 7 7 6 5 4 3 3 2 1 1 -0 -1 -2 -2
Wind_Speed
8 10 7 3 4 5 8 0 3 4 3 5 5 3 6 6 4 4 7 11 15 18 23 22 21 19 17 15 14 13 12 11 11 11 11 11 11 11 12 12 13 13 14 14 15 16 16 17 17
9 8 5 4 5 6 5 2 5 8 7 5 3 2 3 2 7 10 8 11 18 21 23 21 21 20 18 16 15 14 12 12 11 11 10 10 10 10 10 11 11 12 12 13 13 14 15 15 16
7 8 4 4 7 8 3 6 9 8 6 3 4 3 4 5 10 11 10 14 17 20 23 23 23 21 19 17 16 14 13 12 11 10 10 9 9 9 10 10 10 11 11 11 12 13 13 14 15
5 4 5 6 10 7 2 4 7 6 5 3 4 4 4 6 7 11 14 14 13 16 23 24 23 21 20 18 16 15 14 12 11 11 10 9 9 9 9 9 9 9 9 10 10 11 12 12 13
4 4 6 8 11 8 1 4 5 3 5 8 6 5 6 7 11 15 15 13 13 13 22 24 23 22 20 19 17 16 14 13 12 11 10 9 8 8 8 7 7 7 8 8 9 9 10 11 12
4 5 7 8 10 6 1 4 4 4 7 6 8 5 3 8 12 15 14 12 12 12 20 24 23 22 21 19 18 17 15 14 13 11 10 9 8 7 7 7 6 6 6 6 7 8 9 9 10
4 5 8 11 11 10 7 5 1 3 7 5 9 5 6 8 11 13 13 10 11 15 18 22 21 21 21 20 19 18 16 15 14 12 11 10 8 7 7 6 5 5 4 4 5 6 6 7 9
3 5 10 11 11 10 5 3 1 3 7 3 8 6 3 10 12 12 12 10 10 10 12 19 21 20 20 20 20 19 18 16 15 14 12 11 9 8 7 6 5 4 3 2 3 3 4 5 6
3 5 9 11 10 9 4 2 2 3 4 4 4 1 7 17 15 12 10 10 10 12 9 14 19 20 21 20 20 20 19 18 16 15 14 12 11 11 9 7 6 5 3 2 0 1 2 3 3
4 5 11 10 8 8 9 8 7 4 7 8 8 6 11 15 15 15 15 16 16 15 14 9 14 19 21 20 20 19 18 18 17 16 16 14 13 12 10 10 8 6 5 5 4 3 3 3 3
7 9 10 10 8 6 8 9 9 9 12 12 12 13 16 16 16 17 18 18 17 15 14 12 11 17 18 16 18 17 17 18 19 19 20 17 14 11 10 11 10 9 9 9 8 7 6 4 1
8 10 11 9 5 3 7 8 9 12 14 11 10 6 18 19 20 21 20 17 15 14 16 14 12 12 16 16 15 16 16 16 17 19 22 18 13 12 13 13 14 14 13 12 9 9 8 5 4
10 11 9 7 5 7 9 12 12 17 16 13 12 10 17 20 20 19 17 15 15 17 17 15 13 11 13 13 13 14 14 16 18 19 20 20 14 11 12 13 14 14 13 12 10 9 8 7 6
8 10 12 12 12 9 10 13 9 15 13 12 13 12 15 19 19 16 16 18 18 18 18 17 16 13 13 11 9 11 15 16 18 18 20 21 18 15 13 12 12 13 13 12 12 10 7 6 6
5 8 13 13 12 5 3 10 10 17 13 13 12 12 14 17 18 19 19 19 18 16 17 18 17 14 13 11 12 13 15 17 16 18 22 22 20 18 15 11 10 13 15 13 11 10 7 5 5
7 7 7 4 6 6 2 11 9 10 10 12 11 11 13 16 19 19 18 17 16 14 16 18 17 16 15 12 12 12 15 16 16 18 21 23 23 21 17 11 10 16 16 13 8 5 4 5 5
7 7 10 9 3 6 7 13 14 12 13 13 10 9 9 11 16 18 19 19 17 16 15 16 17 17 15 13 11 12 13 14 16 18 19 22 24 24 19 13 13 17 13 10 8 6 6 6 6
10 10 11 11 9 7 9 16 20 14 11 8 7 6 5 6 8 12 17 17 17 16 15 15 16 15 14 11 9 9 10 9 14 17 19 22 24 25 21 15 15 16 9 8 7 7 7 6 5
9 10 14 15 10 7 11 18 20 15 6 6 6 6 5 6 6 2 9 13 14 14 14 16 16 16 14 12 13 13 13 10 9 12 19 23 23 24 22 14 13 13 11 11 11 8 8 8 5
9 12 14 12 10 12 14 16 15 5 2 3 6 8 8 8 8 5 3 9 12 13 13 14 15 16 15 13 12 9 9 8 9 8 15 22 23 24 23 17 12 12 11 13 13 10 8 8 8
10 10 9 10 12 10 8 10 2 6 9 9 9 9 8 8 7 7 2 5 8 10 13 12 14 14 15 12 7 6 6 6 9 11 13 16 23 24 23 21 16 13 14 14 16 14 14 11 10
8 5 7 9 9 6 7 6 6 6 10 10 10 9 9 8 7 6 3 3 6 8 9 11 11 12 13 13 11 12 13 16 17 12 11 12 19 21 24 21 20 15 14 15 16 17 13 11 9
6 9 9 8 7 7 6 5 7 4 8 8 8 8 8 8 7 6 3 1 4 6 7 9 10 11 12 13 15 14 16 15 10 10 12 14 14 18 21 21 18 17 16 16 16 16 16 15 13
7 9 12 6 3 5 2 2 6 2 6 6 6 7 8 9 9 8 5 2 1 4 5 7 9 10 11 13 14 16 18 15 13 13 13 13 12 14 18 19 17 17 16 17 17 16 17 16 15
4 6 5 1 3 3 2 3 7 2 7 6 5 6 7 8 8 7 7 4 1 3 5 6 8 10 10 12 14 16 18 17 17 16 14 13 13 14 17 19 19 18 17 15 14 16 16 17 16
4 3 4 4 5 6 5 5 5 3 7 7 6 6 7 8 7 7 6 6 4 1 4 6 8 10 10 12 14 14 15 14 15 16 15 15 14 14 13 18 19 20 18 18 16 16 17 15 18
4 1 3 3 7 6 6 7 5 3 6 6 6 6 7 7 7 7 6 6 5 3 2 5 8 9 10 12 12 13 15 15 17 16 15 15 15 12 14 16 19 20 20 19 18 17 18 16 18
4 6 3 4 4 6 7 7 3 3 4 5 5 6 6 7 6 6 5 5 4 3 3 4 6 8 9 10 11 11 13 14 15 14 17 17 16 14 13 15 17 18 19 19 19 17 16 18 17
6 4 5 5 5 4 6 6 4 5 3 4 5 6 5 5 4 4 5 6 6 5 5 5 6 6 7 7 8 10 11 12 12 14 16 16 15 14 16 16 16 17 19 19 20 20 18 20 19
1 4 4 4 6 6 7 9 7 2 4 6 6 6 4 3 3 4 5 7 7 7 8 7 6 6 6 6 7 8 10 10 11 13 14 13 14 14 15 15 16 17 18 19 20 21 21 21 21
Wind_Direction
260 244 234 247 244 247 261 238 80 91 91 65 47 342 332 347 11 134 171 165 136 144 150 156 155 153 149 146 141 136 130 123 116 110 103 97 91 85 80 75 71 67 63 59 56 55 54 52 51
267 240 239 242 252 265 276 73 77 70 74 85 89 287 278 97 101 124 160 149 145 148 151 158 158 156 154 151 147 143 138 132 125 118 111 104 98 92 85 79 74 69 65 60 57 55 53 51 50
271 259 248 237 251 263 314 52 76 88 94 151 186 217 289 89 127 146 155 144 150 150 154 159 160 159 158 156 153 150 145 140 134 127 120 113 105 98 90 84 77 71 66 61 57 53 51 50 48
262 233 241 249 266 279 337 49 87 122 142 220 262 208 149 95 128 142 142 152 153 151 153 157 163 163 163 161 159 156 152 147 142 136 130 123 116 108 99 90 82 75 68 62 57 52 49 46 44
231 252 247 257 265 270 233 95 103 209 193 186 208 259 145 111 107 129 146 161 159 154 150 159 167 168 167 166 165 162 159 155 150 146 141 134 127 119 110 100 89 80 72 63 57 50 45 42 40
257 258 269 272 282 300 11 115 145 224 260 193 174 246 132 134 133 142 156 168 163 156 151 162 171 172 171 171 170 168 166 162 159 156 151 146 140 133 125 114 102 89 77 66 57 48 41 36 35
301 297 286 293 300 309 324 102 165 270 274 231 161 210 139 169 153 147 160 172 167 160 155 161 174 175 176 176 175 174 172 170 167 165 162 158 154 149 141 133 122 107 90 73 58 46 36 30 29
314 300 289 288 293 302 353 88 34 322 290 293 157 216 170 167 148 147 159 179 175 165 162 163 174 176 177 179 180 179 178 177 175 173 169 168 167 163 161 156 148 137 120 93 61 38 25 19 22
270 270 276 284 297 313 357 285 244 138 285 281 205 212 87 129 141 151 162 186 186 177 176 169 175 177 177 178 185 182 182 182 180 177 177 176 176 177 179 172 168 169 171 172 166 348 343 338 346
227 260 271 287 310 321 321 305 297 228 230 240 222 149 130 142 158 171 180 188 191 187 184 182 178 177 177 182 180 178 181 182 178 176 179 186 199 190 179 174 181 193 203 213 222 248 270 296 323
254 260 276 293 314 327 306 291 277 261 255 239 230 195 162 167 176 187 193 195 195 189 185 187 185 177 177 177 171 178 181 178 185 184 180 192 198 177 165 170 190 202 213 222 220 236 239 255 277
268 274 282 290 328 315 286 283 277 253 250 253 264 237 168 179 189 195 199 199 194 190 192 189 186 178 178 175 175 178 180 179 188 192 182 188 188 180 185 189 190 199 206 211 212 223 224 227 243
280 274 282 287 278 258 267 269 276 269 264 262 255 237 178 191 200 204 204 200 194 195 193 192 187 183 179 177 180 183 182 181 185 188 188 186 185 189 191 198 198 200 201 198 210 223 222 218 233
307 320 299 279 260 248 255 268 265 264 258 253 242 227 195 198 202 204 206 206 201 198 194 191 192 187 182 183 183 186 185 183 185 186 192 193 190 193 194 196 199 201 203 202 206 218 218 220 226
300 285 279 257 233 216 290 277 240 254 255 253 244 226 206 202 201 207 209 209 205 198 192 191 192 189 186 188 188 191 190 186 189 189 194 198 197 196 195 195 197 201 203 203 207 222 218 224 229
239 252 267 270 164 130 139 272 267 300 300 273 255 237 217 208 205 209 208 206 204 197 191 190 192 193 191 190 191 194 194 193 195 193 194 199 201 200 196 197 199 199 199 198 196 206 202 216 221
239 277 307 337 176 182 205 269 285 291 289 282 271 258 241 222 211 209 205 202 199 196 189 187 188 191 193 190 191 197 199 200 198 197 197 200 201 202 199 199 201 198 195 194 201 199 199 209 217
332 328 314 311 300 284 272 284 298 306 300 306 309 301 288 270 237 212 202 197 192 190 186 185 186 189 189 189 192 198 208 206 202 200 201 200 202 202 201 202 201 197 192 195 198 202 200 205 209
325 304 297 295 306 334 295 291 296 303 320 336 338 344 342 324 313 246 189 184 179 181 183 184 187 189 189 194 199 203 209 208 207 205 204 203 203 202 202 205 202 200 199 200 197 194 201 206 194
286 287 291 300 342 327 291 289 287 278 55 41 25 16 13 1 354 2 143 165 174 179 185 187 189 190 195 201 202 203 204 209 213 211 211 207 205 204 206 206 204 203 203 202 200 196 198 203 191
286 289 313 324 326 284 290 305 317 107 81 69 56 41 33 21 10 5 68 151 168 181 187 194 193 194 196 194 190 196 203 212 217 217 216 212 209 208 208 208 207 206 205 208 205 199 198 204 201
296 349 333 317 324 311 326 306 291 119 78 62 52 44 39 29 27 20 31 153 182 192 188 192 194 195 193 190 198 200 209 219 222 219 217 214 214 214 212 211 210 210 210 211 209 205 202 195 202
293 322 289 280 289 287 254 240 279 109 71 60 51 43 44 38 33 27 17 213 198 189 187 192 197 201 196 198 203 210 222 229 229 222 223 220 219 218 217 214 213 215 215 213 210 208 205 206 206
292 290 269 228 267 266 203 226 287 48 88 69 51 46 39 34 31 26 28 40 182 181 185 192 203 213 207 206 210 215 225 230 229 228 228 225 223 221 219 217 217 218 218 217 214 212 210 210 210
261 315 333 330 233 242 110 260 257 116 110 103 78 58 46 40 34 23 19 7 325 197 200 201 211 224 219 216 219 223 228 231 235 236 235 232 231 227 222 218 219 220 220 218 214 215 215 212 211
314 314 332 311 303 317 316 257 254 119 126 123 106 82 57 46 35 26 22 13 4 293 212 210 220 229 225 224 228 230 231 233 239 239 237 238 238 234 221 217 219 220 218 219 217 219 219 217 217
295 290 52 312 282 271 258 252 266 146 121 105 83 65 54 45 35 23 17 18 9 356 272 224 225 232 230 229 231 233 234 235 239 239 239 243 243 239 224 218 219 219 217 217 216 221 221 219 219
287 324 305 253 286 295 286 287 284 10 18 41 40 45 53 50 31 15 6 358 347 333 303 268 240 237 235 231 232 238 238 239 241 241 241 242 242 238 232 225 221 218 217 216 217 221 220 220 221
181 212 229 259 270 271 287 271 326 340 1 29 38 51 56 53 23 1 354 347 339 335 318 296 271 259 253 244 241 244 246 245 245 245 246 246 244 239 237 232 226 222 219 217 218 221 218 220 222
153 253 247 257 271 276 286 278 276 269 65 59 49 35 38 40 9 356 351 344 337 335 325 316 304 288 275 263 258 257 258 257 254 254 253 249 247 242 239 236 232 228 223 218 219 221 220 221 222
Height
1533 1535 1537 1539 1541 1540 1536 1527 1524 1528 1531 1535 1537 1538 1538 1538 1541 1549 1548 1547 1547 1549 1550 1553 1556 1558 1560 1561 1562 1563 1564 1564 1564 1565 1565 1564 1564 1564 1564 1563 1562 1562 1561 1560 1559 1558 1557 1556 1555
1534 1537 1540 1539 1540 1545 1535 1524 1525 1529 1533 1536 1538 1539 1538 1538 1539 1542 1543 1545 1546 1547 1548 1551 1554 1556 1558 1559 1561 1562 1563 1563 1563 1564 1564 1564 1564 1563 1563 1562 1562 1561 1561 1560 1559 1558 1557 1556 1555
1535 1537 1539 1536 1537 1539 1532 1525 1527 1532 1534 1537 1538 1538 1538 1538 1537 1539 1540 1542 1544 1545 1546 1549 1551 1554 1556 1558 1559 1560 1561 1562 1562 1563 1563 1563 1563 1563 1562 1562 1561 1561 1560 1559 1559 1558 1557 1556 1555
1536 1538 1536 1535 1535 1525 1522 1522 1526 1531 1534 1536 1537 1537 1537 1537 1536 1537 1538 1540 1542 1544 1545 1546 1549 1552 1554 1556 1557 1559 1560 1561 1561 1561 1562 1562 1562 1561 1561 1561 1561 1560 1560 1559 1558 1558 1557 1556 1555
1537 1536 1535 1536 1530 1520 1518 1520 1525 1529 1531 1533 1535 1534 1533 1534 1534 1535 1537 1538 1540 1542 1543 1544 1547 1550 1552 1554 1555 1557 1558 1559 1560 1560 1560 1561 1561 1560 1560 1560 1560 1560 1559 1559 1558 1557 1557 1556 1555
1537 1533 1538 1537 1527 1517 1516 1519 1523 1526 1527 1528 1531 1533 1531 1531 1531 1532 1535 1536 1539 1540 1540 1542 1545 1547 1550 1551 1553 1555 1556 1557 1558 1559 1559 1559 1559 1559 1559 1559 1559 1559 1558 1558 1557 1557 1556 1555 1555
1537 1535 1537 1533 1528 1522 1518 1519 1522 1523 1525 1526 1527 1529 1528 1528 1528 1529 1532 1534 1537 1538 1539 1539 1542 1545 1547 1549 1551 1552 1554 1555 1556 1557 1557 1558 1558 1558 1558 1558 1558 1558 1557 1557 1556 1556 1555 1555 1554
1536 1536 1536 1533 1529 1524 1519 1521 1522 1523 1524 1524 1524 1525 1524 1524 1525 1526 1529 1532 1534 1536 1536 1536 1539 1541 1543 1546 1548 1550 1551 1552 1553 1554 1555 1556 1556 1556 1556 1556 1556 1556 1556 1556 1555 1555 1554 1554 1553
1535 1538 1539 1532 1528 1523 1520 1521 1521 1521 1522 1522 1522 1522 1521 1521 1522 1524 1525 1528 1531 1532 1533 1534 1535 1537 1540 1542 1544 1546 1548 1549 1551 1552 1553 1553 1554 1554 1554 1555 1554 1554 1554 1554 1554 1553 1553 1552 1552
1534 1538 1533 1525 1522 1520 1520 1520 1520 1519 1518 1518 1519 1519 1518 1518 1519 1520 1520 1522 1524 1526 1528 1530 1532 1534 1536 1538 1540 1542 1544 1546 1547 1549 1550 1550 1551 1551 1551 1552 1552 1552 1552 1552 1552 1551 1551 1550 1550
1529 1529 1525 1522 1520 1520 1519 1518 1517 1516 1513 1513 1513 1513 1511 1512 1513 1515 1516 1517 1519 1521 1523 1525 1528 1530 1532 1534 1535 1537 1539 1541 1543 1545 1546 1547 1548 1548 1549 1549 1550 1550 1549 1549 1549 1549 1549 1548 1548
1526 1523 1522 1519 1519 1518 1518 1516 1514 1511 1507 1508 1509 1509 1506 1506 1506 1508 1509 1512 1514 1516 1518 1520 1523 1526 1527 1530 1531 1532 1534 1536 1538 1540 1542 1543 1544 1545 1545 1546 1546 1546 1546 1546 1546 1546 1546 1545 1545
1523 1520 1518 1517 1516 1516 1516 1513 1512 1505 1502 1502 1503 1504 1502 1501 1501 1503 1505 1508 1509 1510 1512 1515 1518 1520 1522 1524 1526 1528 1529 1531 1534 1536 1538 1539 1540 1541 1541 1542 1542 1542 1542 1543 1543 1543 1542 1542 1542
1521 1519 1517 1514 1512 1512 1511 1508 1508 1496 1496 1496 1496 1497 1496 1496 1496 1498 1500 1501 1503 1504 1507 1509 1512 1515 1517 1519 1521 1523 1525 1527 1529 1531 1533 1534 1535 1537 1537 1538 1538 1538 1539 1539 1539 1539 1539 1538 1538
1521 1520 1514 1506 1505 1507 1509 1506 1500 1492 1492 1491 1491 1490 1490 1490 1491 1491 1493 1495 1497 1499 1501 1503 1506 1509 1511 1513 1516 1518 1520 1522 1523 1525 1528 1529 1530 1532 1532 1533 1533 1534 1534 1535 1535 1535 1535 1534 1534
1519 1519 1516 1500 1500 1505 1512 1506 1493 1491 1489 1486 1485 1484 1483 1483 1483 1484 1486 1489 1492 1495 1496 1498 1501 1503 1505 1508 1510 1513 1515 1516 1518 1519 1521 1523 1525 1526 1527 1527 1528 1529 1529 1529 1530 1530 1529 1529 1529
1516 1519 1513 1506 1501 1502 1507 1501 1487 1487 1484 1481 1478 1478 1477 1477 1476 1477 1479 1482 1485 1488 1491 1493 1495 1497 1500 1503 1505 1508 1509 1511 1512 1513 1514 1516 1518 1520 1520 1521 1522 1523 1523 1523 1524 1524 1524 1524 1523
1523 1521 1516 1512 1502 1500 1501 1495 1483 1482 1479 1477 1475 1473 1473 1472 1472 1472 1473 1475 1479 1482 1486 1488 1490 1492 1495 1498 1500 1502 1503 1504 1505 1506 1507 1508 1510 1512 1513 1514 1515 1516 1516 1516 1516 1517 1517 1517 1517
1520 1521 1519 1509 1499 1500 1499 1492 1481 1477 1476 1474 1473 1472 1471 1470 1470 1469 1469 1471 1474 1477 1480 1482 1484 1486 1489 1490 1491 1492 1494 1496 1497 1498 1499 1501 1502 1503 1505 1506 1507 1507 1507 1508 1509 1510 1510 1510 1511
1519 1520 1515 1505 1498 1501 1496 1488 1478 1474 1474 1474 1474 1473 1471 1469 1468 1468 1468 1469 1471 1473 1476 1478 1479 1481 1482 1483 1485 1487 1489 1490 1491 1492 1492 1492 1493 1494 1495 1496 1497 1498 1499 1499 1500 1500 1501 1502 1503
1516 1516 1513 1512 1505 1497 1495 1490 1477 1473 1473 1475 1475 1474 1473 1471 1469 1468 1468 1468 1470 1471 1472 1474 1475 1476 1477 1479 1482 1483 1483 1483 1483 1482 1482 1483 1484 1485 1485 1486 1487 1488 1489 1489 1489 1491 1492 1492 1493
1518 1510 1512 1513 1516 1512 1504 1512 1486 1475 1476 1476 1477 1476 1474 1473 1471 1469 1469 1468 1468 1468 1469 1470 1471 1472 1473 1474 1475 1475 1474 1472 1471 1473 1474 1475 1476 1476 1476 1476 1477 1477 1477 1478 1479 1480 1481 1482 1482
1514 1510 1511 1512 1516 1516 1503 1506 1491 1475 1479 1479 1478 1477 1476 1474 1472 1471 1469 1468 1467 1466 1466 1466 1467 1468 1469 1469 1469 1469 1467 1466 1467 1468 1467 1467 1466 1466 1466 1466 1466 1466 1466 1466 1467 1468 1469 1469 1471
1513 1511 1505 1508 1514 1519 1497 1501 1497 1480 1479 1479 1478 1478 1477 1475 1474 1472 1470 1468 1467 1466 1465 1464 1464 1464 1464 1464 1464 1463 1461 1461 1461 1460 1458 1458 1457 1456 1455 1455 1455 1455 1455 1455 1456 1457 1458 1458 1459
1514 1518 1518 1518 1522 1510 1495 1498 1494 1476 1474 1476 1477 1478 1477 1476 1474 1472 1470 1468 1466 1465 1463 1462 1461 1460 1460 1460 1459 1457 1456 1455 1454 1453 1452 1451 1449 1446 1444 1445 1444 1443 1443 1444 1446 1446 1446 1447 1447
1515 1518 1528 1532 1524 1511 1496 1498 1483 1470 1471 1474 1476 1476 1476 1475 1474 1472 1470 1468 1466 1464 1462 1461 1459 1458 1457 1455 1454 1453 1451 1449 1446 1445 1444 1442 1439 1437 1437 1436 1434 1433 1433 1433 1434 1435 1435 1436 1435
1515 1513 1515 1524 1519 1518 1503 1486 1473 1468 1471 1473 1474 1474 1474 1474 1473 1472 1470 1468 1466 1464 1462 1460 1458 1455 1453 1451 1449 1447 1445 1442 1439 1437 1435 1433 1431 1429 1428 1427 1424 1423 1422 1422 1422 1422 1422 1423 1424
1516 1517 1520 1523 1525 1525 1504 1492 1485 1474 1474 1473 1472 1472 1473 1473 1472 1471 1470 1468 1466 1464 1461 1459 1456 1453 1450 1448 1445 1442 1439 1436 1433 1430 1426 1423 1421 1420 1419 1417 1414 1413 1411 1411 1411 1410 1410 1411 1411
1518 1518 1518 1518 1516 1524 1521 1502 1473 1472 1471 1471 1472 1472 1472 1471 1471 1470 1469 1467 1465 1462 1460 1457 1453 1450 1447 1443 1440 1437 1433 1430 1426 1422 1418 1415 1412 1410 1408 1406 1404 1402 1400 1399 1399 1397 1398 1399 1399
1506 1508 1512 1521 1516 1510 1514 1499 1469 1467 1468 1470 1471 1471 1471 1470 1469 1468 1467 1465 1462 1460 1457 1453 1450 1446 1442 1438 1434 1430 1427 1423 1419 1414 1411 1407 1403 1400 1398 1395 1393 1391 1389 1388 1386 1386 1386 1387 1387